Location: Ostrava
(49.8330°N, 18.2830°E)
Time: 14:18:22
(UTC+02:00)

Vanguard 2 Rocket - Visible Passes

Search period start: 27 May 2016 00:00
Search period end: 06 June 2016 00:00
Orbit: 554 x 3329 km, 32.9° (Epoch: 27 May)

Date Brightness Start Highest point End Pass type
(mag) Time Alt. Az. Time Alt. Az. Time Alt. Az.
27 May 9.0 00:38:26 10° WSW 00:51:07 32° SSW 00:55:47 23° SSE visible
27 May 9.5 02:58:45 10° WSW 03:01:34 12° SW 03:01:34 12° SW visible
27 May 9.6 21:19:55 10° SW 21:36:45 38° S 21:48:55 10° ESE visible
27 May 9.2 23:36:33 10° WSW 23:51:28 37° SSW 23:59:22 17° SE visible
28 May 9.1 01:55:24 10° WSW 02:04:18 21° SW 02:05:08 20° SSW visible
28 May 9.4 22:34:51 10° WSW 22:51:25 40° S 23:02:38 10° ESE visible
29 May 9.0 00:52:57 10° WSW 01:05:11 28° SSW 01:08:43 24° S visible
29 May 9.6 21:33:29 10° WSW 21:51:00 41° S 22:03:41 10° ESE visible
29 May 9.3 23:50:49 10° WSW 00:05:37 35° SSW 00:12:18 21° SSE visible
30 May 9.5 02:10:59 10° WSW 02:18:02 16° SW 02:18:05 16° SW visible
30 May 9.4 22:48:56 10° WSW 23:05:37 40° SSW 23:15:53 14° SE visible
31 May 9.3 01:07:48 10° W 01:19:02 24° SW 01:21:39 22° SSW visible
31 May 9.6 21:47:22 10° WSW 22:05:13 43° S 22:18:15 10° ESE visible
01 Jun 9.3 00:05:19 10° W 00:19:36 31° SSW 00:25:14 23° S visible
01 Jun 9.9 02:28:37 10° WSW 02:31:01 11° SW 02:31:01 11° SW visible
01 Jun 9.6 23:03:13 10° WSW 23:19:42 38° SSW 23:28:48 18° SSE visible
02 Jun 9.6 01:23:13 10° W 01:32:41 19° SW 01:34:36 18° SSW visible
02 Jun 9.7 22:01:31 10° WSW 22:19:21 42° SSW 22:32:23 11° SE visible
03 Jun 9.5 00:20:07 10° W 00:33:23 26° SW 00:38:10 22° S visible
03 Jun 9.8 21:00:15 10° WSW 21:18:37 45° S 21:33:27 10° ESE visible
03 Jun 9.5 23:17:44 10° W 23:33:37 34° SSW 23:41:45 20° SSE visible
04 Jun 10.0 01:39:56 10° WSW 01:46:06 13° SW 01:47:32 13° SW visible
04 Jun 9.8 22:15:52 10° WSW 22:33:22 40° SSW 22:45:20 14° SE visible
05 Jun 9.7 00:35:27 10° W 00:46:56 21° SW 00:51:07 18° SSW visible
05 Jun 9.9 21:14:30 10° WSW 21:32:42 44° SSW 21:47:43 10° SE visible
